EWG5BM EIDW-EDDL

Flight info

Callsign EWG5BM
Flight time 1h 22m
Altitude 37000
Route ENDEQ1E ENDEQ Q36 ALAVA Z195 MALUD UL975 WAL M16 DOLAS L603 LAMSO DCT PAM P62 PISAP PISAP1A
Aircraft A320/M-SDE2E3FGHIJ1RWXY/HB1

Departure

Time 2026-05-07 14:36
Airport Dublin Airport (EIDW)

Arrival

Time 2026-05-07 15:59
Airport Düsseldorf Airport (EDDL)
Time Latitude Longitude Altitude Speed Heading
2026-05-07 14:06 53.42798 -6.24882 211 ft 0 kts 86°
2026-05-07 14:23 53.42798 -6.24904 214 ft 4 kts 86°
2026-05-07 14:23 53.42796 -6.24949 214 ft 4 kts 86°
2026-05-07 14:24 53.42795 -6.24987 211 ft 4 kts 83°
2026-05-07 14:24 53.42786 -6.25024 211 ft 4 kts 28°
2026-05-07 14:24 53.42763 -6.25027 211 ft 4 kts 331°
2026-05-07 14:24 53.42740 -6.25004 212 ft 4 kts 328°
2026-05-07 14:25 53.42725 -6.24988 216 ft 0 kts 328°
2026-05-07 14:26 53.42728 -6.24991 211 ft 1 kts 328°
2026-05-07 14:27 53.42741 -6.25005 212 ft 3 kts 328°
2026-05-07 14:27 53.42769 -6.25037 212 ft 7 kts 313°
2026-05-07 14:27 53.42755 -6.25128 213 ft 9 kts 230°
2026-05-07 14:27 53.42714 -6.25199 211 ft 7 kts 225°
2026-05-07 14:28 53.42677 -6.25262 211 ft 8 kts 226°
2026-05-07 14:28 53.42634 -6.25338 211 ft 10 kts 226°
2026-05-07 14:28 53.42579 -6.25430 215 ft 12 kts 224°
2026-05-07 14:28 53.42515 -6.25539 214 ft 14 kts 226°
2026-05-07 14:29 53.42441 -6.25666 211 ft 16 kts 225°
2026-05-07 14:29 53.42360 -6.25803 211 ft 17 kts 226°
2026-05-07 14:29 53.42278 -6.25955 215 ft 18 kts 238°
2026-05-07 14:29 53.42258 -6.26152 211 ft 13 kts 276°
2026-05-07 14:30 53.42264 -6.26254 217 ft 13 kts 275°
2026-05-07 14:30 53.42273 -6.26416 215 ft 16 kts 276°
2026-05-07 14:30 53.42286 -6.26627 211 ft 19 kts 274°
2026-05-07 14:30 53.42298 -6.26858 211 ft 21 kts 275°
2026-05-07 14:31 53.42308 -6.27054 219 ft 16 kts 276°
2026-05-07 14:31 53.42316 -6.27205 211 ft 12 kts 275°
2026-05-07 14:31 53.42323 -6.27339 214 ft 13 kts 275°
2026-05-07 14:31 53.42335 -6.27559 211 ft 24 kts 275°
2026-05-07 14:32 53.42350 -6.27799 219 ft 18 kts 275°
2026-05-07 14:32 53.42359 -6.27989 211 ft 15 kts 275°
2026-05-07 14:32 53.42369 -6.28172 211 ft 18 kts 275°
2026-05-07 14:32 53.42382 -6.28398 216 ft 18 kts 276°
2026-05-07 14:33 53.42394 -6.28603 211 ft 18 kts 275°
2026-05-07 14:33 53.42404 -6.28794 211 ft 15 kts 275°
2026-05-07 14:33 53.42412 -6.28946 213 ft 12 kts 271°
2026-05-07 14:33 53.42371 -6.29070 211 ft 11 kts 211°
2026-05-07 14:34 53.42356 -6.29078 210 ft 0 kts 192°
2026-05-07 14:34 53.42355 -6.29079 210 ft 2 kts 192°
2026-05-07 14:35 53.42307 -6.29085 216 ft 12 kts 182°
2026-05-07 14:35 53.42239 -6.29001 215 ft 11 kts 104°
2026-05-07 14:35 53.42230 -6.28839 213 ft 22 kts 94°
2026-05-07 14:35 53.42195 -6.28179 212 ft 91 kts 96°
2026-05-07 14:36 53.42113 -6.26778 214 ft 147 kts 97°
2026-05-07 14:36 53.42002 -6.25022 742 ft 149 kts 97°
2026-05-07 14:36 53.41911 -6.23271 1347 ft 152 kts 99°
2026-05-07 14:36 53.41802 -6.21408 1619 ft 174 kts 101°
2026-05-07 14:37 53.41665 -6.19267 1937 ft 195 kts 100°
2026-05-07 14:37 53.41384 -6.14208 2703 ft 241 kts 98°
2026-05-07 14:37 53.41222 -6.11305 3211 ft 263 kts 98°
2026-05-07 14:38 53.41060 -6.08252 4148 ft 264 kts 98°
2026-05-07 14:38 53.40907 -6.05150 5074 ft 269 kts 96°
2026-05-07 14:38 53.40946 -6.01970 5943 ft 275 kts 88°
2026-05-07 14:38 53.41155 -5.98737 6784 ft 281 kts 85°
2026-05-07 14:39 53.41430 -5.95470 7597 ft 285 kts 84°
2026-05-07 14:39 53.41702 -5.92148 8417 ft 290 kts 85°
2026-05-07 14:39 53.41960 -5.88816 9251 ft 294 kts 85°
2026-05-07 14:39 53.42209 -5.85382 10059 ft 298 kts 86°
2026-05-07 14:40 53.42450 -5.81827 10434 ft 318 kts 86°
2026-05-07 14:40 53.42701 -5.77995 10707 ft 340 kts 86°
2026-05-07 14:40 53.42967 -5.74036 11281 ft 348 kts 86°
2026-05-07 14:40 53.43243 -5.69971 11992 ft 353 kts 86°
2026-05-07 14:41 53.43522 -5.65854 12740 ft 356 kts 86°
2026-05-07 14:41 53.43801 -5.61703 13483 ft 360 kts 86°
2026-05-07 14:41 53.44078 -5.57508 14155 ft 364 kts 86°
2026-05-07 14:41 53.44357 -5.53262 14783 ft 367 kts 86°
2026-05-07 14:42 53.44547 -5.48975 15402 ft 369 kts 93°
2026-05-07 14:42 53.44446 -5.44671 16114 ft 370 kts 95°
2026-05-07 14:42 53.44335 -5.40339 16751 ft 373 kts 95°
2026-05-07 14:42 53.44226 -5.35968 17373 ft 377 kts 95°
2026-05-07 14:43 53.44116 -5.31555 17980 ft 380 kts 94°
2026-05-07 14:43 53.44007 -5.27154 18530 ft 384 kts 95°
2026-05-07 14:43 53.43891 -5.22658 19080 ft 387 kts 95°
2026-05-07 14:43 53.43771 -5.18125 19627 ft 390 kts 95°
2026-05-07 14:44 53.43646 -5.13543 20175 ft 393 kts 95°
2026-05-07 14:44 53.43511 -5.08940 20721 ft 396 kts 95°
2026-05-07 14:44 53.43365 -5.04319 21272 ft 399 kts 95°
2026-05-07 14:44 53.43214 -4.99690 21818 ft 401 kts 95°
2026-05-07 14:45 53.43057 -4.95004 22362 ft 404 kts 95°
2026-05-07 14:45 53.42898 -4.90265 22895 ft 407 kts 95°
2026-05-07 14:45 53.42739 -4.85509 23408 ft 410 kts 95°
2026-05-07 14:45 53.42580 -4.80700 23855 ft 413 kts 95°
2026-05-07 14:46 53.42419 -4.75881 24296 ft 415 kts 96°
2026-05-07 14:46 53.42256 -4.71049 24737 ft 416 kts 96°
2026-05-07 14:46 53.42091 -4.66187 25168 ft 418 kts 96°
2026-05-07 14:46 53.41928 -4.61381 25583 ft 419 kts 96°
2026-05-07 14:47 53.41759 -4.56493 25981 ft 420 kts 96°
2026-05-07 14:47 53.41587 -4.51583 26400 ft 422 kts 96°
2026-05-07 14:47 53.41411 -4.46654 26804 ft 423 kts 96°
2026-05-07 14:47 53.41231 -4.41720 27199 ft 425 kts 96°
2026-05-07 14:48 53.41049 -4.36758 27589 ft 426 kts 96°
2026-05-07 14:48 53.40867 -4.31843 27978 ft 428 kts 96°
2026-05-07 14:48 53.40680 -4.26862 28364 ft 429 kts 96°
2026-05-07 14:48 53.40490 -4.21860 28732 ft 430 kts 96°
2026-05-07 14:49 53.40300 -4.16843 29092 ft 432 kts 96°
2026-05-07 14:49 53.40106 -4.11830 29438 ft 433 kts 96°
2026-05-07 14:49 53.39904 -4.06778 29782 ft 434 kts 97°
2026-05-07 14:49 53.39699 -4.01704 30092 ft 435 kts 97°
2026-05-07 14:50 53.39578 -3.96612 30360 ft 439 kts 91°
2026-05-07 14:50 53.39803 -3.91486 30610 ft 441 kts 88°
2026-05-07 14:50 53.40066 -3.86422 30867 ft 442 kts 88°
2026-05-07 14:50 53.40330 -3.81271 31109 ft 443 kts 88°
2026-05-07 14:51 53.40587 -3.76108 31357 ft 444 kts 88°
2026-05-07 14:51 53.40842 -3.70947 31699 ft 442 kts 88°
2026-05-07 14:51 53.41097 -3.65819 32050 ft 441 kts 88°
2026-05-07 14:51 53.41286 -3.60695 32384 ft 437 kts 93°
2026-05-07 14:52 53.41125 -3.55634 32717 ft 434 kts 97°
2026-05-07 14:52 53.40903 -3.50640 33054 ft 433 kts 97°
2026-05-07 14:52 53.40677 -3.45615 33386 ft 432 kts 97°
2026-05-07 14:52 53.40451 -3.40603 33731 ft 430 kts 97°
2026-05-07 14:53 53.40226 -3.35597 34062 ft 429 kts 97°
2026-05-07 14:53 53.40000 -3.30597 34323 ft 429 kts 97°
2026-05-07 14:53 53.39773 -3.25658 34542 ft 429 kts 97°
2026-05-07 14:53 53.39541 -3.20667 34745 ft 430 kts 97°
2026-05-07 14:54 53.39306 -3.15646 34942 ft 431 kts 97°
2026-05-07 14:54 53.39073 -3.10638 35139 ft 432 kts 97°
2026-05-07 14:54 53.38866 -3.05611 35332 ft 433 kts 96°
2026-05-07 14:54 53.38681 -3.00568 35520 ft 433 kts 96°
2026-05-07 14:55 53.38506 -2.95512 35706 ft 434 kts 96°
2026-05-07 14:55 53.38332 -2.90453 35883 ft 435 kts 96°
2026-05-07 14:55 53.38152 -2.85462 36050 ft 436 kts 96°
2026-05-07 14:55 53.37960 -2.80377 36216 ft 436 kts 96°
2026-05-07 14:56 53.37761 -2.75311 36383 ft 437 kts 96°
2026-05-07 14:56 53.37557 -2.70217 36548 ft 438 kts 96°
2026-05-07 14:56 53.37348 -2.65130 36711 ft 438 kts 96°
2026-05-07 14:56 53.37138 -2.60011 36873 ft 439 kts 96°
2026-05-07 14:57 53.36929 -2.54908 37009 ft 439 kts 96°
2026-05-07 14:57 53.36717 -2.49790 37032 ft 439 kts 96°
2026-05-07 14:57 53.36289 -2.39625 37028 ft 439 kts 96°
2026-05-07 14:58 53.35845 -2.29408 37029 ft 439 kts 96°
2026-05-07 14:58 53.35008 -2.19358 37030 ft 437 kts 102°
2026-05-07 14:59 53.33973 -2.09314 37030 ft 437 kts 102°
2026-05-07 14:59 53.32938 -1.99265 37034 ft 438 kts 102°
2026-05-07 15:00 53.31902 -1.89280 37038 ft 438 kts 102°
2026-05-07 15:00 53.30850 -1.79235 37043 ft 438 kts 102°
2026-05-07 15:01 53.29786 -1.69217 37052 ft 437 kts 102°
2026-05-07 15:01 53.28713 -1.59254 37048 ft 438 kts 102°
2026-05-07 15:02 53.27637 -1.49213 37055 ft 438 kts 102°
2026-05-07 15:02 53.26552 -1.39175 37069 ft 438 kts 102°
2026-05-07 15:03 53.25453 -1.29156 37069 ft 439 kts 102°
2026-05-07 15:03 53.24347 -1.19176 37076 ft 439 kts 102°
2026-05-07 15:04 53.23232 -1.09137 37075 ft 439 kts 102°
2026-05-07 15:04 53.22119 -0.99174 37071 ft 439 kts 102°
2026-05-07 15:05 53.20984 -0.89170 37067 ft 438 kts 102°
2026-05-07 15:05 53.19843 -0.79218 37065 ft 440 kts 102°
2026-05-07 15:06 53.18680 -0.69170 37073 ft 441 kts 102°
2026-05-07 15:06 53.17523 -0.59127 37071 ft 440 kts 102°
2026-05-07 15:07 53.16358 -0.49087 37071 ft 440 kts 102°
2026-05-07 15:07 53.15192 -0.39145 37069 ft 439 kts 102°
2026-05-07 15:08 53.14004 -0.29134 37062 ft 439 kts 103°
2026-05-07 15:08 53.12805 -0.19146 37060 ft 439 kts 103°
2026-05-07 15:09 53.11609 -0.09223 37058 ft 439 kts 103°
2026-05-07 15:09 53.10405 0.00764 37058 ft 439 kts 103°
2026-05-07 15:10 53.09199 0.10689 37061 ft 439 kts 103°
2026-05-07 15:10 53.07970 0.20649 37068 ft 439 kts 103°
2026-05-07 15:11 53.06728 0.30595 37074 ft 439 kts 103°
2026-05-07 15:11 53.05485 0.40535 37079 ft 439 kts 103°
2026-05-07 15:12 53.04449 0.48808 37078 ft 439 kts 103°
2026-05-07 15:12 53.03191 0.58755 37082 ft 439 kts 103°
2026-05-07 15:13 53.01932 0.68630 37083 ft 439 kts 103°
2026-05-07 15:13 53.00660 0.78554 37086 ft 439 kts 103°
2026-05-07 15:14 52.99379 0.88479 37086 ft 439 kts 103°
2026-05-07 15:14 52.98088 0.98367 37092 ft 439 kts 104°
2026-05-07 15:15 52.96853 1.08255 37091 ft 439 kts 102°
2026-05-07 15:15 52.95738 1.18239 37094 ft 440 kts 102°
2026-05-07 15:16 52.94624 1.28234 37098 ft 440 kts 102°
2026-05-07 15:16 52.93466 1.38181 37098 ft 440 kts 102°
2026-05-07 15:17 52.92281 1.48096 37103 ft 440 kts 102°
2026-05-07 15:17 52.91090 1.58059 37106 ft 440 kts 102°
2026-05-07 15:18 52.89905 1.67983 37106 ft 440 kts 102°
2026-05-07 15:18 52.88707 1.77934 37111 ft 440 kts 102°
2026-05-07 15:19 52.87493 1.87897 37110 ft 440 kts 102°
2026-05-07 15:19 52.86281 1.97793 37105 ft 441 kts 102°
2026-05-07 15:20 52.85054 2.07758 37104 ft 441 kts 103°
2026-05-07 15:20 52.83809 2.17710 37107 ft 441 kts 103°
2026-05-07 15:21 52.82563 2.27603 37107 ft 441 kts 103°
2026-05-07 15:21 52.81309 2.37551 37104 ft 441 kts 103°
2026-05-07 15:22 52.80043 2.47447 37108 ft 442 kts 103°
2026-05-07 15:22 52.78775 2.57386 37109 ft 442 kts 103°
2026-05-07 15:23 52.77496 2.67327 37108 ft 442 kts 103°
2026-05-07 15:23 52.76205 2.77271 37111 ft 442 kts 103°
2026-05-07 15:24 52.74909 2.87187 37114 ft 443 kts 103°
2026-05-07 15:24 52.73605 2.97083 37118 ft 443 kts 103°
2026-05-07 15:25 52.72094 3.06943 37114 ft 443 kts 107°
2026-05-07 15:25 52.70283 3.16659 37113 ft 443 kts 108°
2026-05-07 15:26 52.68427 3.26359 37118 ft 443 kts 108°
2026-05-07 15:26 52.66634 3.36033 37117 ft 443 kts 108°
2026-05-07 15:27 52.64860 3.45779 37115 ft 444 kts 108°
2026-05-07 15:27 52.63087 3.55517 37116 ft 444 kts 108°
2026-05-07 15:28 52.61297 3.65240 36644 ft 443 kts 108°
2026-05-07 15:28 52.60390 3.70089 35967 ft 442 kts 108°
2026-05-07 15:28 52.59491 3.74865 35352 ft 440 kts 108°
2026-05-07 15:29 52.58588 3.79663 34777 ft 437 kts 108°
2026-05-07 15:29 52.57693 3.84421 34352 ft 431 kts 107°
2026-05-07 15:29 52.56814 3.89104 33879 ft 426 kts 107°
2026-05-07 15:29 52.55942 3.93742 33343 ft 420 kts 107°
2026-05-07 15:30 52.55077 3.98320 32654 ft 417 kts 107°
2026-05-07 15:30 52.54223 4.02835 32149 ft 413 kts 107°
2026-05-07 15:30 52.53386 4.07265 31632 ft 409 kts 107°
2026-05-07 15:30 52.52544 4.11709 31126 ft 406 kts 108°
2026-05-07 15:31 52.51702 4.16125 30634 ft 403 kts 108°
2026-05-07 15:31 52.50864 4.20504 30128 ft 400 kts 108°
2026-05-07 15:31 52.50029 4.24847 29575 ft 397 kts 108°
2026-05-07 15:31 52.49193 4.29176 28990 ft 395 kts 108°
2026-05-07 15:32 52.48377 4.33407 28439 ft 393 kts 108°
2026-05-07 15:32 52.47551 4.37689 27895 ft 391 kts 108°
2026-05-07 15:32 52.46730 4.41947 27373 ft 389 kts 109°
2026-05-07 15:32 52.46044 4.45492 26939 ft 388 kts 109°
2026-05-07 15:33 52.45239 4.49647 26463 ft 386 kts 109°
2026-05-07 15:33 52.44423 4.53832 26124 ft 384 kts 109°
2026-05-07 15:33 52.43610 4.57997 26071 ft 385 kts 109°
2026-05-07 15:33 52.42790 4.62190 26088 ft 386 kts 109°
2026-05-07 15:34 52.41969 4.66383 26090 ft 386 kts 109°
2026-05-07 15:34 52.41146 4.70583 26084 ft 387 kts 109°
2026-05-07 15:34 52.40319 4.74779 26080 ft 387 kts 109°
2026-05-07 15:34 52.39493 4.78982 26084 ft 387 kts 109°
2026-05-07 15:35 52.38666 4.83179 26083 ft 387 kts 109°
2026-05-07 15:35 52.37835 4.87377 26086 ft 387 kts 109°
2026-05-07 15:35 52.37005 4.91556 26081 ft 387 kts 109°
2026-05-07 15:35 52.36177 4.95711 26080 ft 387 kts 109°
2026-05-07 15:36 52.35339 4.99904 26082 ft 387 kts 109°
2026-05-07 15:36 52.34508 5.04109 26083 ft 387 kts 108°
2026-05-07 15:36 52.33721 5.08337 26084 ft 387 kts 108°
2026-05-07 15:36 52.32941 5.12557 26082 ft 388 kts 108°
2026-05-07 15:37 52.32163 5.16767 26081 ft 388 kts 108°
2026-05-07 15:37 52.31381 5.20995 26078 ft 388 kts 108°
2026-05-07 15:37 52.30598 5.25221 25972 ft 388 kts 108°
2026-05-07 15:37 52.29818 5.29428 25743 ft 387 kts 108°
2026-05-07 15:38 52.29037 5.33634 25516 ft 385 kts 108°
2026-05-07 15:38 52.28268 5.37774 25297 ft 384 kts 108°
2026-05-07 15:38 52.27491 5.41956 25075 ft 383 kts 108°
2026-05-07 15:38 52.26718 5.46111 24854 ft 382 kts 108°
2026-05-07 15:39 52.25945 5.50266 24503 ft 381 kts 108°
2026-05-07 15:39 52.25178 5.54386 24149 ft 378 kts 108°
2026-05-07 15:39 52.24409 5.58495 23845 ft 377 kts 108°
2026-05-07 15:39 52.23654 5.62519 23515 ft 375 kts 108°
2026-05-07 15:40 52.22889 5.66578 23144 ft 373 kts 108°
2026-05-07 15:40 52.22125 5.70617 22783 ft 371 kts 108°
2026-05-07 15:40 52.21364 5.74629 22429 ft 369 kts 108°
2026-05-07 15:40 52.20602 5.78608 22075 ft 367 kts 110°
2026-05-07 15:41 52.19494 5.82311 21802 ft 363 kts 123°
2026-05-07 15:41 52.18149 5.85782 21567 ft 362 kts 123°
2026-05-07 15:41 52.16799 5.89261 21330 ft 361 kts 123°
2026-05-07 15:41 52.15454 5.92718 21091 ft 360 kts 123°
2026-05-07 15:42 52.14117 5.96152 20860 ft 359 kts 123°
2026-05-07 15:42 52.12801 5.99530 20634 ft 357 kts 123°
2026-05-07 15:42 52.11470 6.02940 20407 ft 356 kts 123°
2026-05-07 15:42 52.10141 6.06342 20167 ft 355 kts 123°
2026-05-07 15:43 52.08815 6.09735 19962 ft 354 kts 123°
2026-05-07 15:43 52.07495 6.13109 19723 ft 353 kts 123°
2026-05-07 15:43 52.06180 6.16471 19474 ft 351 kts 123°
2026-05-07 15:43 52.04866 6.19825 19230 ft 350 kts 123°
2026-05-07 15:44 52.03556 6.23153 18984 ft 349 kts 123°
2026-05-07 15:44 52.02246 6.26475 18730 ft 348 kts 123°
2026-05-07 15:44 52.00957 6.29743 18500 ft 347 kts 123°
2026-05-07 15:44 51.99658 6.33036 18257 ft 346 kts 123°
2026-05-07 15:45 51.98362 6.36311 17980 ft 344 kts 123°
2026-05-07 15:45 51.97065 6.39574 17705 ft 343 kts 123°
2026-05-07 15:45 51.95771 6.42822 17441 ft 342 kts 123°
2026-05-07 15:45 51.94485 6.46053 17169 ft 340 kts 123°
2026-05-07 15:46 51.91941 6.52440 16418 ft 337 kts 123°
2026-05-07 15:46 51.90565 6.55494 16032 ft 334 kts 133°
2026-05-07 15:46 51.88861 6.58025 15650 ft 331 kts 145°
2026-05-07 15:47 51.86877 6.59853 15269 ft 327 kts 161°
2026-05-07 15:47 51.84669 6.60567 15001 ft 322 kts 180°
2026-05-07 15:47 51.82431 6.60410 14759 ft 321 kts 185°
2026-05-07 15:47 51.80206 6.60180 14515 ft 320 kts 185°
2026-05-07 15:48 51.77980 6.59934 14270 ft 319 kts 185°
2026-05-07 15:48 51.75769 6.59684 14028 ft 317 kts 185°
2026-05-07 15:48 51.73577 6.59440 13772 ft 314 kts 185°
2026-05-07 15:48 51.71400 6.59203 13381 ft 312 kts 185°
2026-05-07 15:49 51.69259 6.58970 12977 ft 311 kts 185°
2026-05-07 15:49 51.67105 6.58735 12572 ft 310 kts 185°
2026-05-07 15:49 51.64960 6.58501 12179 ft 309 kts 185°
2026-05-07 15:49 51.62814 6.58270 11756 ft 308 kts 185°
2026-05-07 15:50 51.60680 6.58041 11346 ft 307 kts 185°
2026-05-07 15:50 51.58571 6.57814 10926 ft 307 kts 185°
2026-05-07 15:50 51.56518 6.57594 10528 ft 306 kts 185°
2026-05-07 15:50 51.54391 6.57368 10133 ft 305 kts 185°
2026-05-07 15:51 51.52308 6.57147 10005 ft 295 kts 185°
2026-05-07 15:51 51.50415 6.56945 9695 ft 290 kts 185°
2026-05-07 15:51 51.48382 6.56723 9265 ft 290 kts 185°
2026-05-07 15:51 51.46387 6.56506 8714 ft 285 kts 185°
2026-05-07 15:52 51.44413 6.56295 8013 ft 283 kts 184°
2026-05-07 15:52 51.42451 6.56087 7331 ft 281 kts 184°
2026-05-07 15:52 51.40512 6.55879 6765 ft 277 kts 184°
2026-05-07 15:52 51.38574 6.55671 6214 ft 282 kts 184°
2026-05-07 15:53 51.37276 6.55533 6000 ft 279 kts 184°
2026-05-07 15:53 51.35346 6.55327 5603 ft 277 kts 184°
2026-05-07 15:53 51.33425 6.55118 5040 ft 275 kts 184°
2026-05-07 15:53 51.30908 6.54841 4267 ft 268 kts 184°
2026-05-07 15:54 51.29670 6.54706 4186 ft 260 kts 184°
2026-05-07 15:54 51.27899 6.54516 4065 ft 249 kts 184°
2026-05-07 15:54 51.26205 6.54334 3951 ft 238 kts 184°
2026-05-07 15:54 51.24603 6.54162 3850 ft 229 kts 184°
2026-05-07 15:55 51.23023 6.54010 3745 ft 227 kts 179°
2026-05-07 15:55 51.21527 6.54677 3641 ft 223 kts 143°
2026-05-07 15:55 51.20567 6.56557 3532 ft 220 kts 109°
2026-05-07 15:55 51.20430 6.58960 2965 ft 221 kts 72°
2026-05-07 15:56 51.21177 6.61066 2468 ft 217 kts 51°
2026-05-07 15:56 51.22073 6.62908 2140 ft 202 kts 51°
2026-05-07 15:56 51.22899 6.64619 1899 ft 188 kts 51°
2026-05-07 15:56 51.23670 6.66224 1614 ft 176 kts 51°
2026-05-07 15:57 51.24371 6.67691 1396 ft 156 kts 51°
2026-05-07 15:57 51.25001 6.69008 1184 ft 143 kts 50°
2026-05-07 15:57 51.25592 6.70243 990 ft 138 kts 51°
2026-05-07 15:57 51.26173 6.71457 803 ft 137 kts 51°
2026-05-07 15:58 51.26743 6.72649 615 ft 137 kts 51°
2026-05-07 15:58 51.27317 6.73858 413 ft 136 kts 50°
2026-05-07 15:58 51.27891 6.75058 249 ft 136 kts 50°
2026-05-07 15:58 51.28459 6.76236 131 ft 123 kts 53°
2026-05-07 15:59 51.28884 6.77122 127 ft 76 kts 52°
2026-05-07 15:59 51.29103 6.77587 130 ft 35 kts 53°
2026-05-07 15:59 51.29242 6.77888 135 ft 28 kts 53°
2026-05-07 15:59 51.29294 6.78092 139 ft 17 kts 98°
2026-05-07 16:00 51.29228 6.78207 137 ft 11 kts 164°
2026-05-07 16:00 51.29212 6.78212 137 ft 0 kts 170°
2026-05-07 16:00 51.29205 6.78214 136 ft 5 kts 171°
2026-05-07 16:00 51.29148 6.78160 135 ft 16 kts 233°
2026-05-07 16:01 51.29067 6.77988 127 ft 21 kts 231°
2026-05-07 16:01 51.28979 6.77804 127 ft 19 kts 233°
2026-05-07 16:01 51.28893 6.77631 125 ft 21 kts 231°
2026-05-07 16:01 51.28812 6.77451 129 ft 20 kts 231°
2026-05-07 16:02 51.28717 6.77272 130 ft 22 kts 226°
2026-05-07 16:02 51.28633 6.77077 125 ft 21 kts 233°
2026-05-07 16:02 51.28550 6.76908 124 ft 18 kts 240°
2026-05-07 16:02 51.28480 6.76753 122 ft 16 kts 231°
2026-05-07 16:03 51.28404 6.76598 123 ft 19 kts 233°
2026-05-07 16:03 51.28341 6.76482 126 ft 8 kts 192°
2026-05-07 16:03 51.28285 6.76499 126 ft 7 kts 181°
2026-05-07 16:03 51.28253 6.76468 123 ft 5 kts 223°
2026-05-07 16:04 51.28246 6.76458 124 ft 5 kts 221°
2026-05-07 16:04 51.28233 6.76445 127 ft 6 kts 210°